7 * 24
多渠道服务支持
STARLINK-32837 是 SpaceX Starlink 项目中的一颗低轨道通信卫星,属于第三代星链卫星群。该卫星于2023年发射,旨在为全球用户提供高速互联网服务。它运行在约550公里高度的近地轨道,具备先进通信技术,支持宽带数据传输。作为星链网络的一部分,STARLINK-32837 有助于扩大覆盖范围,提升网络稳定性和响应速度,特别是在偏远地区。其设计强调高效能与可持续性,符合 SpaceX 打造全球无缝互联网连接的愿景。
美国
(US)
| 数据来源 | 国际轨道数据 |
| 星历时间: | 2025-11-06T22:11:47+0800 1天前 查看轨道信息 |
| 半长轴: | 6853.25km |
| 偏心率: | 0.0002861 |
| 轨道倾角: | 53.153° |
| 近地点辐角 | 98.658° |
| 升交点赤经 | 161.235° |
| 平近点角 | 261.474° |
| 近地点: | 473.154km |
| 远地点: | 477.076km |
| 周期: | 94.103分钟 |
| 每日圈数: | 15.302345 |